logo tempoitalia

Diretta Meteo Chickasha, Stati Uniti (USA)lunedì 31 agosto ore 01:35

Mappa
Sereno 29 °C Sereno 24 Ore: T.min 24 T.max 41
Ponente Sud Km/h 16.7 Punto di rugiada: 14 °C Umidità: 39% Visibilità: 10 Km
Il sole sorge alle: 07:03 Il sole tramonta alle: 20:00
31 Agosto 2026 01:35 tempo osservato: Sereno Sereno 29 39 1015 vento: Nord S 16.7
31 Agosto 2026 01:15 tempo osservato: Sereno Sereno 29 39 1015 vento: Nord S 18.5
31 Agosto 2026 00:55 tempo osservato: Sereno Sereno 29 39 1015 vento: Nord S/SE 16.7
31 Agosto 2026 00:35 tempo osservato: Sereno Sereno 30 37 1014 vento: Nord S/SE 18.5
31 Agosto 2026 00:15 tempo osservato: Sereno Sereno 30 37 1014 vento: Nord S/SE 16.7
30 Agosto 2026 23:55 tempo osservato: Sereno Sereno 30 37 1014 vento: Nord S 18.5
30 Agosto 2026 23:35 tempo osservato: Sereno Sereno 31 35 1014 vento: Nord S 20.3
30 Agosto 2026 23:15 tempo osservato: Sereno Sereno 31 35 1014 vento: Nord S/SE 20.3
30 Agosto 2026 22:55 tempo osservato: Sereno Sereno 31 35 1014 vento: Nord S/SE 20.3
30 Agosto 2026 22:35 tempo osservato: Sereno Sereno 31 35 1014 vento: Nord S/SE 20.3
30 Agosto 2026 22:15 tempo osservato: Sereno Sereno 32 33 1014 vento: Nord S/SE 18.5
30 Agosto 2026 21:55 tempo osservato: Sereno Sereno 32 33 1014 vento: Nord S/SE 22.2
30 Agosto 2026 21:35 tempo osservato: Sereno Sereno 33 31 1013 vento: Nord S/SE 20.3
30 Agosto 2026 21:15 tempo osservato: Sereno Sereno 33 31 1013 vento: Nord S/SE 18.5
30 Agosto 2026 20:55 tempo osservato: Sereno Sereno 34 30 1012 vento: Nord S/SE 22.2
30 Agosto 2026 20:35 tempo osservato: Sereno Sereno 34 30 1012 vento: Nord S/SE 16.7
30 Agosto 2026 20:15 tempo osservato: Sereno Sereno 35 28 1012 vento: Nord S/SE 14.8
30 Agosto 2026 19:55 tempo osservato: Sereno Sereno 36 26 1012 vento: Nord S/SE 18.5
30 Agosto 2026 19:35 tempo osservato: Sereno Sereno 37 23 1012 vento: Nord S/SE 16.7
30 Agosto 2026 19:15 tempo osservato: Sereno Sereno 38 24 1012 vento: Nord S 16.7
30 Agosto 2026 18:55 tempo osservato: Sereno Sereno 38 24 1012 vento: Nord S/SE 24
30 Agosto 2026 18:35 tempo osservato: Sereno Sereno 39 22 1012 vento: Nord S 16.7
30 Agosto 2026 18:15 tempo osservato: Sereno Sereno 39 22 1012 vento: Nord S 24
30 Agosto 2026 17:55 tempo osservato: Sereno Sereno 40 21 1012 vento: Nord S 18.5
30 Agosto 2026 17:35 tempo osservato: Sereno Sereno 40 21 1012 vento: Nord S 22.2
30 Agosto 2026 17:15 tempo osservato: Sereno Sereno 40 21 1012 vento: Nord S 16.7
30 Agosto 2026 16:55 tempo osservato: Sereno Sereno 40 23 1012 vento: Nord S/SE 20.3
30 Agosto 2026 16:35 tempo osservato: Sereno Sereno 40 23 1012 vento: Nord S 27.8
30 Agosto 2026 16:15 tempo osservato: Sereno Sereno 41 21 1012 vento: Nord S 20.3
30 Agosto 2026 15:55 tempo osservato: Sereno Sereno 41 21 1013 vento: Nord S/SO 16.7
30 Agosto 2026 15:35 tempo osservato: Nuvoloso Nuvoloso 41 21 1013 vento: Nord SO 14.8
30 Agosto 2026 15:15 tempo osservato: Nuvoloso Nuvoloso 41 21 1013 vento: Nord S 25.9
30 Agosto 2026 14:55 tempo osservato: Nuvoloso Nuvoloso 39 26 1014 vento: Nord S/SO 22.2
30 Agosto 2026 14:35 tempo osservato: Nuvoloso Nuvoloso 40 23 1014 vento: Nord S/SE 25.9
30 Agosto 2026 14:15 tempo osservato: Nuvoloso Nuvoloso 40 24 1014 vento: Nord S/SO 20.3
30 Agosto 2026 13:55 tempo osservato: Nuvoloso Nuvoloso 39 26 1014 vento: Nord S 24
30 Agosto 2026 13:35 tempo osservato: Nuvoloso Nuvoloso 39 26 1014 vento: Nord S 18.5
30 Agosto 2026 13:15 tempo osservato: Nuvoloso Nuvoloso 38 27 1015 vento: Nord S/SO 20.3
30 Agosto 2026 12:55 tempo osservato: Nuvoloso Nuvoloso 39 27 1015 vento: Nord S 22.2
30 Agosto 2026 12:35 tempo osservato: Sereno Sereno 38 29 1015 vento: Nord S/SO 20.3
30 Agosto 2026 12:15 tempo osservato: Sereno Sereno 38 29 1016 vento: Nord S 22.2
30 Agosto 2026 11:55 tempo osservato: Sereno Sereno 37 30 1016 vento: Nord S/SO 25.9
30 Agosto 2026 11:35 tempo osservato: Sereno Sereno 37 30 1016 vento: Nord S/SO 22.2
30 Agosto 2026 11:15 tempo osservato: Sereno Sereno 36 34 1016 vento: Nord S/SO 22.2
30 Agosto 2026 10:55 tempo osservato: Sereno Sereno 36 34 1016 vento: Nord S/SO 25.9
30 Agosto 2026 10:35 tempo osservato: Sereno Sereno 35 36 1016 vento: Nord S/SO 22.2
30 Agosto 2026 10:15 tempo osservato: Sereno Sereno 34 38 1016 vento: Nord S/SO 24
30 Agosto 2026 09:55 tempo osservato: Sereno Sereno 33 41 1016 vento: Nord S 24
30 Agosto 2026 09:35 tempo osservato: Sereno Sereno 32 43 1016 vento: Nord S/SO 20.3
30 Agosto 2026 09:15 tempo osservato: Sereno Sereno 30 48 1017 vento: Nord S 18.5
30 Agosto 2026 08:55 tempo osservato: Sereno Sereno 28 51 1017 vento: Nord S 16.7
30 Agosto 2026 08:35 tempo osservato: Sereno Sereno 27 54 1017 vento: Nord SE 11.1
30 Agosto 2026 08:15 tempo osservato: Sereno Sereno 25 57 1016 vento: Nord SE 11.1
30 Agosto 2026 07:55 tempo osservato: Sereno Sereno 24 60 1016 vento: Nord SE 13
30 Agosto 2026 07:35 tempo osservato: Sereno Sereno 24 60 1016 vento: Nord SE 13
30 Agosto 2026 07:15 tempo osservato: Sereno Sereno 24 60 1016 vento: Nord SE 13
30 Agosto 2026 06:55 tempo osservato: Sereno Sereno 24 60 1016 vento: Nord SE 11.1
30 Agosto 2026 06:35 tempo osservato: Sereno Sereno 24 57 1016 vento: Nord E/SE 13
30 Agosto 2026 06:15 tempo osservato: Sereno Sereno 24 57 1015 vento: Nord E/SE 7.4
30 Agosto 2026 05:55 tempo osservato: Sereno Sereno 24 57 1015 vento: Nord E/SE 11.1
30 Agosto 2026 05:35 tempo osservato: Sereno Sereno 24 57 1015 vento: Nord E/SE 11.1
30 Agosto 2026 05:15 tempo osservato: Sereno Sereno 24 57 1015 vento: Nord E/SE 11.1
30 Agosto 2026 04:55 tempo osservato: Sereno Sereno 25 53 1015 vento: Nord E/SE 13
30 Agosto 2026 04:35 tempo osservato: Sereno Sereno 26 50 1015 vento: Nord SE 14.8
30 Agosto 2026 04:15 tempo osservato: Sereno Sereno 25 53 1015 vento: Nord SE 16.7
30 Agosto 2026 03:55 tempo osservato: Sereno Sereno 26 50 1015 vento: Nord E/SE 13
30 Agosto 2026 03:35 tempo osservato: Sereno Sereno 26 50 1015 vento: Nord SE 14.8
30 Agosto 2026 03:15 tempo osservato: Sereno Sereno 26 50 1015 vento: Nord E/SE 14.8
30 Agosto 2026 02:55 tempo osservato: Sereno Sereno 26 50 1015 vento: Nord E/SE 14.8
30 Agosto 2026 02:35 tempo osservato: Sereno Sereno 26 47 1015 vento: Nord E/SE 11.1
30 Agosto 2026 02:15 tempo osservato: Sereno Sereno 26 47 1015 vento: Nord SE 7.4
30 Agosto 2026 01:55 tempo osservato: Sereno Sereno 27 44 1015 vento: Nord E/SE 9.3
30 Agosto 2026 01:35 tempo osservato: Sereno Sereno 27 44 1015 vento: Nord SE 11.1